TimeCST,TemperatureF,Dew PointF,Humidity,Sea Level PressureIn,VisibilityMPH,Wind Direction,Wind SpeedMPH,Gust SpeedMPH,PrecipitationIn,Events,Conditions,WindDirDegrees,DateUTC
12:53 AM,19.9,7.0,57,30.37,10.0,SW,5.8,-,N/A,,Overcast,230,2013-01-25 06:53:00
1:53 AM,19.9,8.1,60,30.34,10.0,South,8.1,-,N/A,,Overcast,190,2013-01-25 07:53:00
2:53 AM,21.0,7.0,55,30.30,10.0,South,6.9,-,N/A,,Overcast,190,2013-01-25 08:53:00
3:53 AM,19.9,6.1,55,30.24,10.0,SSW,8.1,-,N/A,,Overcast,200,2013-01-25 09:53:00
4:53 AM,19.9,8.1,60,30.22,4.0,SSW,9.2,-,0.00,Snow,Light Snow,200,2013-01-25 10:53:00
5:03 AM,19.4,10.4,68,30.17,1.8,SSW,9.2,-,0.00,Snow,Light Snow,200,2013-01-25 11:03:00
5:27 AM,17.6,14.0,86,30.17,1.2,South,8.1,-,0.00,Snow,Light Snow,190,2013-01-25 11:27:00
5:53 AM,18.0,14.0,84,30.19,1.2,South,10.4,-,0.01,Snow,Light Snow,180,2013-01-25 11:53:00
6:40 AM,17.6,14.0,86,30.14,1.5,South,10.4,-,0.01,Snow,Light Snow,180,2013-01-25 12:40:00
6:53 AM,17.1,14.0,88,30.17,2.0,South,5.8,-,0.01,Snow,Light Snow,180,2013-01-25 12:53:00
7:07 AM,17.6,14.0,86,30.13,2.5,South,9.2,-,0.00,Snow,Light Snow,180,2013-01-25 13:07:00
7:18 AM,17.6,14.0,86,30.12,3.0,South,10.4,-,0.00,Snow,Light Snow,180,2013-01-25 13:18:00
7:42 AM,17.6,14.0,86,30.11,2.5,South,6.9,-,0.00,Snow,Light Snow,180,2013-01-25 13:42:00
7:53 AM,17.1,14.0,88,30.14,4.0,South,8.1,-,0.00,Snow,Light Snow,190,2013-01-25 13:53:00
8:53 AM,18.0,14.0,84,30.12,9.0,SSW,12.7,17.3,0.00,,Overcast,200,2013-01-25 14:53:00
9:53 AM,19.0,14.0,81,30.10,10.0,SW,12.7,18.4,N/A,,Overcast,220,2013-01-25 15:53:00
10:53 AM,21.0,15.1,78,30.07,10.0,SW,10.4,-,N/A,,Overcast,220,2013-01-25 16:53:00
11:03 AM,21.2,15.8,80,30.03,10.0,SW,13.8,-,N/A,,Overcast,230,2013-01-25 17:03:00
11:15 AM,21.2,15.8,80,30.02,10.0,SW,6.9,-,N/A,,Overcast,230,2013-01-25 17:15:00
11:53 AM,21.9,15.1,75,30.03,10.0,SW,15.0,19.6,N/A,,Overcast,230,2013-01-25 17:53:00
12:53 PM,21.9,15.1,75,30.00,10.0,WSW,9.2,-,N/A,,Overcast,250,2013-01-25 18:53:00
1:15 PM,23.0,15.8,74,29.96,10.0,WSW,11.5,-,N/A,,Overcast,250,2013-01-25 19:15:00
1:53 PM,23.0,15.1,72,29.99,9.0,WSW,10.4,-,N/A,,Overcast,250,2013-01-25 19:53:00
2:18 PM,23.0,15.8,74,29.96,1.8,WSW,9.2,-,0.00,Snow,Light Snow,240,2013-01-25 20:18:00
2:35 PM,23.0,17.6,80,29.96,2.5,WSW,6.9,-,0.00,Snow,Light Snow,240,2013-01-25 20:35:00
2:53 PM,21.9,17.1,82,30.00,3.0,WSW,9.2,-,0.00,Snow,Light Snow,250,2013-01-25 20:53:00
3:53 PM,23.0,17.1,78,30.01,4.0,SW,5.8,-,0.00,Snow,Light Snow,220,2013-01-25 21:53:00
4:33 PM,23.0,17.6,80,29.98,2.5,Calm,Calm,-,0.00,Snow,Light Snow,0,2013-01-25 22:33:00
4:53 PM,21.9,19.0,89,30.02,2.0,Calm,Calm,-,0.00,Snow,Light Snow,0,2013-01-25 22:53:00
5:28 PM,21.2,19.4,93,30.00,3.0,Calm,Calm,-,0.00,Snow,Light Snow,0,2013-01-25 23:28:00
5:37 PM,21.2,19.4,93,30.00,2.5,Calm,Calm,-,0.00,Snow,Light Snow,0,2013-01-25 23:37:00
5:44 PM,21.2,19.4,93,30.00,3.0,Calm,Calm,-,0.00,Snow,Light Snow,0,2013-01-25 23:44:00
5:53 PM,21.9,19.9,92,30.04,4.0,Calm,Calm,-,0.00,Snow,Light Snow,0,2013-01-25 23:53:00
6:53 PM,23.0,17.1,78,30.07,10.0,NNW,8.1,-,0.00,,Overcast,330,2013-01-26 00:53:00
7:53 PM,21.0,10.9,65,30.09,10.0,WNW,8.1,-,N/A,,Overcast,300,2013-01-26 01:53:00
8:53 PM,18.0,10.0,71,30.11,10.0,WNW,6.9,-,N/A,,Clear,300,2013-01-26 02:53:00
9:53 PM,17.1,10.0,74,30.14,10.0,NW,6.9,-,N/A,,Clear,310,2013-01-26 03:53:00
10:53 PM,16.0,9.0,74,30.16,10.0,NW,5.8,-,N/A,,Clear,310,2013-01-26 04:53:00
11:53 PM,16.0,9.0,74,30.20,10.0,WNW,4.6,-,N/A,,Clear,290,2013-01-26 05:53:00